SCP
0 0 0 0 0 0 0 0 0 0 0 0 0 0 0 0 0 0 0 0 0 0 0 0 0 0 0 0 0 0 0 0 0 0 0 0 0 0 0 0 0 0 0
0 0 0 0 0 0 0 0 0 0 0 0 0 0 0 0 0 0 0 0 0 0 0 0 0 0 0 0 0 0 0 0 0 0 0 0 0 0 0 0 0 0 0
0 0 0 0 0 0 0 0 0 0 0 0 0 0 0 0 0 0 0 0 0 0 0 0 0 0 0 0 0 0 0 0 0 0 0 0 0 0 0 0 0 0 0
0 0 0 0 0 0 0 0 0 0 0 0 0 0 0 0 0 0 0 0 0 0 0 0 0 0 0 0 0 0 0 0 0 0 0 0 0 0 0 0 0 0 0
0 0 0 0 0 0 0 0 0 0 0 0 0 0 0 0 0 0 0 0 0 0 0 0 0 0 0 0 0 0 0 0 0 0 0 0 0 0 0 0 0 0 0
0 0 0 0 0 0 0 0 0 0 0 0 0 0 0 0 0 0 0 0 0 0 0 0 0 0 0 0 0 0 0 0 0 0 0 0 0 0 0 0 0 0 0
0 0 0 0 0 0 0 1 1 1 0 0 0 0 0 0 0 0 0 0 0 0 0 0 0 0 0 0 0 0 0 0 0 0 0 0 0 0 0 0 0 0 0
0 0 0 0 0 0 1 1 1 1 1 1 0 0 0 0 0 0 0 0 0 0 0 0 0 0 0 0 0 0 0 0 0 0 0 0 0 0 0 0 0 0 0
0 0 0 0 0 0 1 1 1 1 1 1 1 0 0 0 0 0 0 0 0 0 0 0 0 0 0 0 0 0 0 0 0 0 0 0 0 0 0 0 0 0 0
0 0 0 0 0 0 1 1 1 1 1 1 1 1 1 0 0 0 0 0 0 0 0 0 0 0 0 0 0 0 0 0 0 0 0 0 0 0 0 0 0 0 0
0 0 0 0 0 0 0 1 1 1 1 1 1 1 1 1 1 1 0 0 0 0 0 0 0 0 0 0 0 0 0 0 0 0 0 0 0 0 0 0 0 0 0
0 0 0 0 0 0 1 1 1 1 1 1 1 1 1 1 1 1 1 1 0 0 0 0 0 0 0 0 0 0 0 0 0 0 0 0 0 0 0 0 0 0 0
0 0 0 0 0 0 1 1 1 1 1 1 1 1 1 1 1 1 1 1 1 1 1 1 1 0 0 0 0 0 0 0 0 0 0 0 0 0 0 0 0 0 0
0 0 0 0 0 1 1 1 1 1 1 1 1 1 1 1 1 1 1 1 1 1 1 1 1 0 0 0 0 0 0 0 0 0 0 0 0 0 0 0 0 0 0
0 0 0 0 0 1 1 1 1 1 1 1 1 1 1 1 1 1 1 1 1 1 1 1 1 1 1 0 0 0 0 0 0 0 0 0 0 0 0 0 0 0 0
0 0 0 0 0 1 1 1 1 1 1 1 1 1 1 1 1 1 1 1 1 1 1 1 1 1 1 0 0 0 0 0 0 0 0 0 0 0 0 0 0 0 0
0 0 0 0 1 1 1 1 1 1 1 1 1 1 1 1 1 1 1 1 1 1 1 1 1 1 0 0 0 0 0 0 0 0 0 0 0 0 0 0 0 0 0
0 0 1 1 1 1 1 1 1 1 1 1 1 1 1 1 1 1 1 1 1 1 1 1 1 1 0 0 0 0 0 0 0 0 0 0 0 0 0 0 0 0 0
0 0 1 1 1 1 1 1 1 1 1 1 1 1 1 1 1 1 1 1 1 1 1 1 1 0 0 0 0 0 0 0 0 0 0 0 0 0 0 0 0 0 0
0 1 1 1 1 1 1 1 1 1 1 1 1 1 1 1 1 1 1 1 1 1 1 1 1 0 0 0 0 0 0 0 0 0 0 0 0 0 0 0 0 0 0
0 1 1 1 1 1 1 1 1 1 1 1 1 1 1 1 1 1 0 0 1 1 1 1 0 0 0 0 0 0 0 0 0 0 0 0 0 0 0 0 0 0 0
1 1 1 1 1 1 1 1 1 1 1 1 1 1 1 1 0 0 0 0 1 1 1 0 0 0 0 0 0 0 0 0 0 0 0 0 0 0 0 0 0 0 0
0 1 1 1 1 1 1 1 1 1 1 1 1 1 1 1 0 0 0 0 0 0 0 0 0 0 0 0 0 0 0 0 0 0 0 0 0 0 0 0 0 0 0
0 0 1 1 1 1 1 1 1 1 1 1 1 1 1 1 0 0 0 0 0 0 0 0 0 0 0 0 0 0 0 0 0 0 0 0 0 0 0 0 0 0 0
0 0 0 0 0 1 1 1 1 1 1 1 1 1 1 1 1 0 0 0 0 0 0 0 0 0 0 0 0 0 0 0 0 0 0 0 0 0 0 0 0 0 0
1 0 0 0 0 0 1 1 1 1 1 1 1 1 1 1 1 0 0 0 0 0 0 0 0 0 0 0 0 0 0 0 0 0 0 0 0 0 0 0 0 0 0
Wind_Speed
8 9 10 9 8 7 6 5 5 4 3 2 2 2 1 1 1 1 2 2 2 2 2 1 1 1 2 2 3 3 3 2 2 3 2 1 1 1 1 1 2 1 1
8 8 9 9 9 8 7 6 5 5 4 3 3 2 2 1 1 1 1 2 2 2 3 2 2 2 2 2 2 3 2 1 2 3 2 1 2 2 1 1 2 1 0
12 11 10 9 9 9 8 7 6 5 5 4 2 2 2 1 1 1 0 1 2 2 2 3 2 2 2 2 2 3 3 2 1 2 3 3 2 1 1 0 1 1 0
11 11 10 10 10 10 8 7 6 6 5 5 4 4 3 2 2 2 1 1 1 2 2 2 3 2 2 2 2 2 2 3 2 0 1 2 4 3 0 1 1 1 1
12 13 13 12 11 10 9 7 7 6 5 5 5 5 3 3 1 1 1 1 1 1 2 2 2 2 2 2 2 1 2 2 2 2 1 1 1 2 3 1 1 1 1
11 12 12 11 9 9 9 8 7 6 6 5 5 5 5 4 3 2 2 1 1 1 1 2 2 2 2 2 2 2 2 2 2 2 2 2 2 2 2 2 2 1 2
10 10 11 11 11 11 10 9 8 7 6 6 6 6 6 5 5 3 3 2 1 1 2 2 2 2 2 2 2 2 2 2 2 2 2 2 2 2 3 3 2 1 1
9 10 11 11 11 11 10 10 9 8 8 7 6 6 5 4 3 3 3 3 2 3 2 2 2 2 2 2 2 1 2 2 2 2 2 2 2 2 3 3 3 1 1
7 8 9 10 10 10 10 11 10 9 8 8 7 6 5 5 4 4 3 2 2 2 2 2 2 2 2 2 2 1 1 1 2 2 2 2 2 2 2 3 4 4 2
7 6 7 9 9 9 9 9 9 9 8 8 7 7 6 5 5 3 3 3 3 2 2 2 2 1 1 1 1 1 1 2 2 2 2 2 2 2 2 3 3 3 3
8 6 6 7 8 8 9 8 8 6 7 8 7 6 6 5 4 4 4 3 3 3 3 2 2 2 1 1 1 1 1 2 2 2 2 2 2 2 2 2 2 2 2
6 6 6 6 7 8 8 8 7 6 7 7 7 6 5 5 4 4 4 4 3 3 3 3 2 2 2 1 1 1 1 2 2 2 1 2 1 2 2 2 2 2 3
5 5 5 6 7 7 6 6 7 7 6 6 6 6 5 5 5 5 4 4 3 3 2 3 3 2 2 2 2 2 2 2 2 2 2 2 2 2 2 2 2 2 2
6 6 6 5 6 7 8 7 6 6 6 6 7 6 6 6 5 4 4 4 3 3 3 3 3 3 2 2 2 2 1 1 2 2 2 2 2 3 3 2 2 2 2
5 5 6 5 6 6 6 7 6 5 5 6 6 6 5 4 4 4 4 3 3 4 3 3 2 2 2 2 2 2 1 1 1 1 1 2 2 3 3 2 2 2 2
6 5 5 5 6 7 6 6 6 5 5 5 5 5 4 4 4 4 4 3 3 2 2 3 3 2 2 2 3 2 1 1 1 1 1 1 1 2 2 3 3 4 4
6 6 6 6 6 6 7 7 6 5 5 5 4 4 4 4 4 4 3 3 3 3 2 2 2 2 1 1 2 2 2 1 1 1 1 0 0 1 1 1 2 2 4
4 4 5 5 5 5 6 6 6 6 5 4 3 3 3 3 3 4 4 3 3 3 2 2 2 2 2 2 2 2 2 1 1 1 2 1 1 1 2 1 1 1 2
5 4 3 4 5 6 6 6 6 6 5 5 4 4 4 3 4 4 4 3 3 2 2 2 2 3 2 3 2 2 2 1 1 1 1 1 2 2 2 2 1 2 3
4 3 3 4 4 4 5 7 5 5 5 5 5 4 4 4 3 3 3 2 2 2 2 2 2 3 2 3 3 3 2 1 1 1 1 2 2 3 2 2 2 3 4
4 4 4 4 3 4 6 6 5 4 4 3 3 3 3 3 3 3 2 2 2 2 2 2 1 2 2 3 3 3 2 2 2 2 2 2 3 3 4 3 3 5 4
5 5 5 4 3 4 6 6 5 4 3 3 3 2 2 2 2 3 2 2 2 2 2 2 1 1 2 3 3 4 3 3 2 2 2 2 3 3 4 3 4 5 3
4 4 5 5 2 3 5 6 4 4 5 4 3 3 2 2 2 3 3 2 2 2 2 2 2 2 1 2 3 3 3 2 2 2 3 3 4 3 2 4 5 3 2
3 4 5 4 2 2 3 3 3 4 5 4 3 3 3 2 1 2 2 2 2 2 2 2 2 2 1 2 1 1 1 2 1 1 2 3 3 2 3 3 3 2 2
2 4 4 3 2 2 2 3 3 4 4 3 3 2 2 2 1 1 2 3 4 5 5 4 4 3 3 4 4 3 2 2 2 1 1 1 1 1 2 2 2 2 2
3 3 3 3 2 2 2 2 3 4 5 3 2 2 2 1 1 1 1 2 2 4 5 5 5 4 5 4 4 5 4 3 3 2 1 2 2 2 3 3 3 2 2
Wind_Direction
174 165 163 160 154 153 153 157 153 161 149 138 134 137 150 165 141 163 166 160 157 156 147 136 138 135 139 149 142 133 130 130 123 104 67 22 37 75 97 118 124 141 165
164 166 163 162 163 165 166 163 164 165 164 165 164 166 162 172 169 171 164 177 170 163 157 148 153 149 135 127 136 133 130 150 138 128 112 51 5 1 41 95 128 134 125
175 174 171 170 169 170 172 171 173 168 170 161 137 117 80 53 51 62 168 212 180 173 163 158 155 148 145 159 171 163 153 164 185 151 143 143 190 293 334 330 128 134 114
178 175 175 174 176 179 174 170 170 169 171 159 146 148 151 165 198 193 194 201 180 175 166 157 158 160 157 161 176 166 161 155 173 248 173 160 158 152 197 324 292 203 203
181 178 180 179 180 178 173 171 168 169 172 166 165 159 160 178 178 166 168 192 212 185 172 169 158 164 165 173 173 152 156 163 170 174 157 113 103 130 145 197 260 314 292
184 180 180 175 176 177 174 172 171 178 178 173 174 171 166 166 160 172 184 209 217 212 198 180 167 174 173 179 184 178 168 177 173 172 166 162 165 173 158 171 194 229 268
176 179 179 177 179 179 177 177 177 184 184 181 184 180 176 174 179 186 187 179 180 204 222 203 187 184 187 186 174 165 180 185 179 189 193 187 183 166 155 149 174 209 257
176 180 183 180 181 181 179 178 182 186 185 186 189 187 180 182 189 188 183 186 191 204 205 198 191 192 188 188 171 168 199 191 195 203 197 192 198 176 165 163 156 163 271
182 182 180 180 180 181 182 183 184 187 189 189 187 185 186 184 186 186 184 192 198 200 198 184 181 184 188 187 173 187 208 193 202 205 199 199 213 204 194 175 165 162 193
174 179 188 185 181 180 181 178 182 192 191 189 191 188 190 191 191 181 187 195 201 198 177 171 177 179 183 178 163 190 203 194 221 210 204 218 219 217 203 193 192 175 172
171 171 187 190 182 176 173 177 184 186 188 191 193 190 190 189 186 186 197 196 190 184 180 174 166 169 177 166 164 229 218 205 231 237 217 230 215 206 207 201 196 187 166
161 161 174 179 175 176 175 177 180 184 191 189 184 188 189 186 186 194 199 190 185 186 182 177 173 184 183 178 186 227 234 209 219 235 225 240 225 209 206 191 197 203 190
151 148 153 167 168 169 170 181 185 188 191 184 180 184 189 191 197 201 197 190 188 186 184 178 185 195 193 193 205 202 215 225 222 220 216 234 211 221 214 199 201 209 201
149 149 154 161 164 167 170 181 190 192 186 181 183 188 195 197 198 194 191 192 186 183 191 189 194 198 196 200 204 193 212 230 240 237 224 223 210 208 207 205 203 193 176
148 151 157 165 166 167 170 172 177 189 183 177 184 193 191 182 174 178 186 186 187 190 190 188 200 201 198 210 202 200 195 201 248 273 253 233 215 210 202 192 190 179 180
166 163 159 157 168 170 172 173 173 176 167 170 183 186 177 173 177 182 183 178 184 186 178 192 198 205 221 216 198 182 180 190 202 248 286 271 208 200 189 186 186 181 183
169 162 172 171 172 175 170 171 170 161 163 171 170 168 168 175 185 186 174 179 187 183 185 198 197 207 231 190 179 177 163 177 220 226 232 252 234 156 157 186 184 200 210
149 168 184 173 167 163 157 155 148 146 148 153 165 165 157 171 180 175 178 187 188 184 193 200 200 195 216 199 181 165 129 135 231 235 214 200 223 214 173 184 219 249 245
156 165 171 154 144 149 151 140 140 143 143 156 168 172 165 166 176 180 188 184 172 185 197 195 190 187 216 202 174 142 115 114 289 286 256 204 225 232 182 167 221 281 286
125 133 126 109 121 132 130 126 137 141 156 169 169 167 163 157 160 169 166 164 166 188 184 184 190 186 191 195 182 166 142 148 278 300 285 249 248 253 224 201 213 246 265
118 117 106 108 128 128 121 129 137 155 176 172 156 153 162 168 165 158 159 161 167 163 164 170 190 192 201 202 193 185 171 195 229 261 277 276 277 263 258 249 233 237 244
109 118 118 109 112 125 130 137 154 167 152 140 130 137 153 174 153 138 134 135 144 147 174 173 198 234 225 207 210 207 203 199 202 237 253 262 269 274 271 265 260 256 246
113 114 118 115 121 137 140 148 170 154 146 145 147 143 137 140 135 139 144 147 154 169 198 193 209 244 246 241 226 214 221 222 213 249 260 267 268 273 272 262 262 250 232
117 107 102 105 111 125 130 149 152 144 138 144 151 148 139 145 153 158 168 179 186 194 207 205 212 232 254 254 250 232 233 244 255 290 301 297 278 267 265 272 264 242 227
106 112 121 132 134 130 143 152 143 133 133 143 155 157 159 169 183 190 202 204 215 203 200 212 204 197 230 244 219 199 206 210 218 213 332 340 336 311 299 291 275 263 258
107 108 117 124 123 125 137 140 137 136 140 155 172 174 169 176 184 181 301 292 250 233 221 216 206 217 223 230 223 222 225 212 173 140 222 262 264 260 262 266 267 257 254